Location: Góry Miechowskie
(50.3599°N, 20.1803°E)
Time: 01:42:55
(UTC+00:00)

S-56A Canister/Altair - Pass Details

Date: 17 September 2024
Orbit: 636 x 2487 km, 38.9° (Epoch: 15 October)

Event Time Altitude Azimuth Distance (km) Brightness Sun altitude
Rises 16:23:23 0° 215° (SW) 3,094 11.2 3.1°
Reaches altitude 10° 16:26:09 10° 197° (SSW) 2,329 10.3 2.6°
Maximum altitude 16:29:56 19° 151° (SSE) 2,006 9.4 2.0°
Drops below altitude 10° 16:34:37 10° 109° (ESE) 2,975 9.9 1.3°
Sets 16:38:45 0° 94° (E) 4,301 10.6 0.6°
